datetime,Ref_CO_ppmv,Ref_CO2_ppmv,Ref_NO2_ppbv,Aeroqual_CO_1_ppmv,Aeroqual_CO_2_ppmv,Aeroqual_CO2_1_ppmv,Aeroqual_CO2_2_ppmv,Aeroqual_NO2_1_ppbv,Cairpol_CO_1_ppmv,Cairpol_CO_2_ppmv,Cairpol_NO2_1_ppbv,Cairpol_NO2_2_ppbv
2017-11-10 13:30,-0.1646167,409.6667,2.1715,0.010417,0.004583,426.2333,410.3,113.35,0.244,0.258,0,2
2017-11-10 13:31,-0.16385,409.6667,2.144667,0.010417,0.005833,425.7333,410.3333,121.433,0.236,0.294,0,2
2017-11-10 13:32,-0.1676833,410,2.127333,-0.015833,0.01375,426.3667,410.4333,124.3,0.239,0.25,0,3
2017-11-10 13:33,-0.1533333,409.8333,2.1065,0.000833,0.010833,426.8333,410.3,119.633,0.234,0.266,0,0
2017-11-10 13:34,-0.1685833,410,2.077667,0.010417,0.012917,426,410.4333,115.65,0.232,0.258,0,0
2017-11-10 13:35,-0.1641667,409.6667,2.0755,0.00625,0.00875,423.2,410.3667,105.05,0.239,0.261,0,0
2017-11-10 13:36,-0.1555833,409.8333,2.0725,0.004167,0.005417,426.0667,410.2333,94.767,0.239,0.266,0,2
2017-11-10 13:37,-0.1499,410.5,2.050333,0.009167,0.00625,426.4667,411.0667,93.533,0.232,0.259,0,0
2017-11-10 13:38,-0.1376667,410,2.004833,0.007083,0.005833,425.3333,410.3,91.933,0.234,0.259,0,0
2017-11-10 13:39,-0.1200067,410.6667,1.9895,0.01125,0.008333,426.5,410.4333,98.35,0.258,0.272,0,0
2017-11-10 13:40,2.263182,432,1.991833,0.012917,0.715,430.7,416.6333,108.75,0.281,0.281,78,0
2017-11-10 13:41,3.749833,461.6667,2.082667,0.0125,3.889583,439.2,423.9667,122.733,1.377,1.274,0,10
2017-11-10 13:42,1.6885,445.5,2.208167,0.0125,3.484583,449.1,436.7333,127.6,1.37,1.797,0,2
2017-11-10 13:43,1.328,447.6667,2.21,0.00875,1.770833,454.8667,441.4,111.5,1.06,1.114,0,0
2017-11-10 13:44,2.289833,452.5,2.822167,0.009583,2.220417,458.9,446.9,110.233,0.902,0.978,0,1
2017-11-10 13:45,1.4202,440.6667,4.534833,0.009167,1.183333,464.8,449.2333,108.95,1.152,1.267,0,1
2017-11-10 13:46,1.88805,417.6667,5.88,0.00625,0.7625,462.1333,449.1333,104.883,0.782,0.903,0,1
2017-11-10 13:47,2.3055,422.8333,7.206,0.00625,1.90125,453.3667,444.0667,107.967,1.132,1.224,0,1
2017-11-10 13:48,1.650333,416,7.990167,0.00875,0.389167,449.5,434.3,105.683,0.833,0.97,0,0
2017-11-10 13:49,2.9995,413.3333,8.321333,0.007083,0.51375,443.4667,433.8333,96.583,0.992,0.951,0,0
2017-11-10 13:50,6.447833,632.8333,8.4025,0.009583,2.100417,464.6667,448.6,145.9,1.508,1.754,0,57
2017-11-10 13:51,12.675,1014,9.213,-0.003333,10.09125,767.7667,702.4,393,4.24,3.665,0,250
2017-11-10 13:52,13.0435,762,21.90483,0.012917,11.635,1014.7,900.9333,444.717,9.587,8.722,0,250
2017-11-10 13:53,8.785833,560,44.6115,0.006667,3.703333,966.8333,879.7,278.717,7.337,7.127,0,189
2017-11-10 13:54,7.7485,967.6667,63.3155,0.000833,0.322917,796.8666,740.4667,221.117,3.902,4.144,0,142
2017-11-10 13:55,49.5275,952,84.42934,0.024167,17.77625,1016.4,895.8666,483.817,4.54,4.28,0,250
2017-11-10 13:56,7.370417,511.3333,136.1587,0.012917,11.505,867.9667,792.3666,187.933,20,18.786,0,121
2017-11-10 13:57,3.187917,505.8333,172.2962,0.005,0.14125,679.5,614.5333,153.85,4.002,4.282,0,79
2017-11-10 13:58,3.57675,519.8333,179.4285,0.001667,0.37625,632.7,562.3,176.117,2.77,2.797,0,71
2017-11-10 13:59,3.269,495.5,171.7195,0.007083,1.396667,605.6334,544.1,192.9,2.807,2.809,0,64
2017-11-10 14:00,1.728667,444.1667,155.2432,0.004167,0.602083,582.6667,530.1334,161.683,2.805,2.659,0,35
2017-11-10 14:01,0.6923666,416,135.2498,0.005,0.0125,544.8666,503.3333,135.917,1.727,1.878,0,11
2017-11-10 14:02,15.49732,1204.667,120.042,0.024167,6.693333,649.7,563.4,344.283,0.767,0.881,0,250
2017-11-10 14:03,44.8375,912.1667,105.6722,0.039583,21.73625,974.7333,826.7,530.8,10.541,9.185,0,250
2017-11-10 14:04,8.698417,541.8333,104.98,0.009167,15.98167,884.7,784.7333,232,20,20,0,159
2017-11-10 14:05,3.892417,526,105.0913,0.00375,2.05,712.1667,639.1334,157.55,4.31,4.648,0,85
2017-11-10 14:06,7.089083,652,105.3117,0.007083,2.501667,664.3,592.1,207.6,3.167,3.232,0,135
2017-11-10 14:07,7.76725,721.8333,103.9468,0.013333,6.431667,691.8666,614.7333,271.983,4.803,4.943,0,170
2017-11-10 14:08,8.873,854.1667,105.4603,0.014583,6.2125,738.4,652.1334,282.267,4.989,4.975,0,180
2017-11-10 14:09,18.15417,976.8333,110.9192,0.019167,14.15292,894.4,793.0667,427.217,6.663,5.981,0,250
2017-11-10 14:10,18.35417,1011.5,122.8562,0.064583,12.92333,952.2,833.1334,398.417,9.934,9.8,0,250
2017-11-10 14:11,23.83667,617,132.7002,0.01875,16.81417,959.2333,837.8,306.467,10.474,10.082,0,224
2017-11-10 14:12,9.625333,451.6667,153.4595,0.007083,8.144584,685.8666,592.1,88.4,11.666,11.922,0,9
2017-11-10 14:13,15.5,858.5,166.0797,0.01375,17.87708,570.3,509.4667,111.167,5.314,5.411,11,3
2017-11-10 14:14,35.89917,958.8333,166.8325,0.019167,23.075,613.7333,548.1,249.117,10.953,11.239,0,130
2017-11-10 14:15,19.945,741,161.3643,0.017917,24.1575,852.7333,762.6334,389.433,20,20,0,246
2017-11-10 14:16,9.726917,690.5,164.3053,0.010833,15.4325,802.8333,723.3333,250.25,8.838,9.326,0,140
2017-11-10 14:17,12.35958,682.5,160.4207,0.074583,12.02125,765.3666,690.2333,272.317,5.904,5.896,0,184
2017-11-10 14:18,10.50267,649.5,156.5097,-0.025,9.024583,743,608.8333,210.717,5.673,5.861,0,140
2017-11-10 14:19,12.68017,672.1667,151.5797,0.014167,10.225,714.2667,612,210.567,6.463,6.71,0,121
2017-11-10 14:20,12.212,775.8333,136.3853,0.009167,10.2475,689.9,606.2333,231.533,6.362,6.252,0,160
2017-11-10 14:21,9.6035,588.6667,130.8742,0.0075,10.13875,708.5,631.5667,267.633,5.767,6.217,0,169
2017-11-10 14:22,7.91825,652.1667,131.2398,0.012917,5.555,701.3,631.4,233.883,4.949,5.382,0,149
2017-11-10 14:23,7.677417,681,130.289,0.009167,4.407084,683.4,618.6,225.783,5.029,4.782,0,149
2017-11-10 14:24,8.075833,626.6667,126.1647,0.0075,5.134583,683.3666,624.3333,257.117,5.029,5.226,0,169
2017-11-10 14:25,4.555333,470.8333,123.1928,0.037917,3.343333,666.1667,603.8,180.867,4.54,4.616,0,74
2017-11-10 14:26,15.7045,637.1667,121.4277,0.013333,7.714167,590.4333,520.3666,183.033,2.294,2.639,0,108
2017-11-10 14:27,8.775333,693,119.0195,0.0225,10.31583,651.6667,580.4667,284.25,7.598,8.157,0,188
2017-11-10 14:28,9.607667,582.6667,119.333,0.0175,9.335834,703.2,632.7667,286.567,5.436,5.508,0,185
2017-11-10 14:29,7.456,427.1667,117.4437,-0.004583,7.047083,640,569.4,130.317,5.89,6.254,0,34
2017-11-10 14:30,73.61616,1290,109.5955,0.01875,9.774167,594.6,541.7333,238.283,3.126,3.833,0,227
2017-11-10 14:31,58.29917,611.5,102.7173,0.02625,24.82417,800,768.4667,241.967,20,20,0,143
2017-11-10 14:32,7.059,521.8333,94.41383,0.00375,13.93667,671.6334,616.7667,84.833,16.12,20,0,29
2017-11-10 14:33,3.427917,1453.5,88.01633,0.00875,5.699584,611.0333,558.4333,115.7,4.679,5.036,5,27
2017-11-10 14:34,0.2847317,413,80.34067,0.005,3.63125,531.2667,476.5333,88.4,2.835,3.175,0,6
2017-11-10 14:35,0.3465883,416.6667,71.70467,0.005417,3.964167,479.9,430.7667,109.633,1.018,1.2,0,0
2017-11-10 14:36,0.390075,412.3333,62.4945,-0.000417,1.72,457.1,411.3667,96.783,1.089,1.214,0,0
2017-11-10 14:37,0.3511667,410.8333,53.8645,-0.000417,0.014583,447.2667,405.3667,65.367,0.94,1.095,0,0
2017-11-10 14:38,0.2321267,412.1667,45.3795,0,0.012917,447.6333,410.6667,58.883,0.856,1.001,0,0
2017-11-10 14:39,0.618225,414.3333,39.9345,-0.013333,0.0125,447.8667,410.5667,61.983,0.776,0.868,0,1
2017-11-10 14:40,0.2251917,412.1667,32.94267,0.00625,0.01625,447.7,410.5,62.05,0.914,0.993,0,0
2017-11-10 14:41,0.07160083,413.6667,27.00567,0.018333,0.01875,447.6667,412.6333,62.083,0.744,0.801,0,0
2017-11-10 14:42,-0.0540975,408.5,22.11633,0.011667,0.018333,447.2333,418.4,72.3,0.647,0.677,0,0
2017-11-10 14:43,-0.1140333,409.3333,18.99717,0.00875,0.015417,447.9,418.5,80.633,0.593,0.604,0,0
2017-11-10 14:44,0.2348637,408.8333,18.878,0.030417,0.013333,447.6333,419.1,114.967,0.669,0.572,0,1
2017-11-10 14:45,0.5177625,415.6667,12.177,0.049167,1.099583,455.9,426.0333,124.967,0.686,0.776,0,0
2017-11-10 14:46,4.950917,418.8333,7.203333,0.035,5.977917,455.3667,425.5,126.65,1.107,1.008,0,0
2017-11-10 14:47,0.7526417,430.1667,6.081333,0.0325,5.6475,455.5,421.6,117.25,2.199,2.364,0,0
2017-11-10 14:48,0.04491167,420.1667,5.006,0.032917,4.4575,453.1,417.1667,129.483,0.545,0.596,0,0
2017-11-10 14:49,0.810335,434.3333,4.134167,0.0075,3.067917,447.2667,407.3667,128.183,0.458,0.516,0,0
2017-11-10 14:50,-0.1439917,408,3.496,-0.003333,0.155833,440.2,403,118.6,0.426,0.477,0,0
2017-11-10 14:51,-0.1709083,408.8333,2.882333,-0.0075,0.01375,437.3333,402.8667,110.733,0.381,0.465,0,0
2017-11-10 14:52,-0.1809083,407.6667,2.32,-0.01125,0.013333,432.3667,401.6667,93.783,0.364,0.44,0,0
2017-11-10 14:53,-0.1935833,408.3333,1.826667,-0.009583,0.01375,432,399.0333,92.5,0.38,0.46,7,0
2017-11-10 14:54,-0.200225,407.8333,1.371333,-0.004583,0.013333,432.3333,395.2333,77.467,0.385,0.462,6,6
2017-11-10 14:55,-0.1876083,408,0.9585,-0.048333,0.01375,432.8667,399.7333,75.433,0.367,0.448,0,42
2017-11-10 14:56,-0.187375,407.5,0.5825,0.014583,0.02,432.4667,402.8,78.35,0.381,0.549,0,0
2017-11-10 14:57,-0.19475,408,0.288,0.008333,0.02,432.3333,402.9667,72.333,0.39,0.435,0,0
2017-11-10 14:58,-0.1847667,408,0.033833,0.01,0.01625,433.8,402.9,72.017,0.402,0.443,0,0
2017-11-10 14:59,-0.1858333,407.8333,-0.184833,0.01,0.014583,440.2667,403,79.617,0.409,0.44,0,1
2017-11-10 15:00,-0.1947583,407.8333,-0.388,0.0075,0.015,440,402.8333,82.533,0.404,0.43,0,0
2017-11-10 15:01,-0.19915,408,-0.550167,0.0075,0.015417,440.0667,402.9,90.183,0.401,0.426,0,1
2017-11-10 15:02,-0.188575,408.1667,-0.694,-0.037083,0.014583,434.8,400.3,85.967,0.401,0.431,0,0
2017-11-10 15:03,-0.1143083,407.6667,-0.819833,-0.009583,0.018333,437.8333,398.4667,81.1,0.39,0.426,0,0
2017-11-10 15:04,-0.1813917,408,-0.94,0.004167,0.022917,440.4,402.8333,86.7,0.418,0.443,0,1
2017-11-10 15:05,-0.1951,407.8333,-1.018333,0.007917,0.02375,440.5333,402.9,90.55,0.391,0.424,0,1
2017-11-10 15:06,-0.194575,408,-1.086333,0.004167,0.020417,439.0667,401.5667,88.833,0.385,0.415,0,0
2017-11-10 15:07,-0.201775,407.6667,-1.142,0.005417,0.016667,433.6667,401.7333,85.667,0.386,0.423,0,0
2017-11-10 15:08,-0.2021417,409,-1.2185,0.005,0.015,432.7667,395.9,89.767,0.388,0.426,0,0
2017-11-10 15:09,-0.1978417,407.8333,-1.2615,0.008333,0.015,434.3667,401.6333,92.7,0.376,0.423,0,0
2017-11-10 15:10,-0.1920917,407.8333,-1.301333,0.005417,0.015,440.7333,401.6,99.767,0.372,0.416,0,1
2017-11-10 15:11,-0.2023333,408,-1.375,0.037083,0.015,441.1333,402.9333,101.233,0.368,0.401,0,0
2017-11-10 15:12,-0.1622833,407.6667,-1.409833,0.01125,0.019583,440.8333,402.2333,100.95,0.355,0.398,0,0
2017-11-10 15:13,-0.1684417,407.8333,-1.4045,0.005,0.024583,433.1333,395.1667,95.267,0.381,0.417,0,0
2017-11-10 15:14,-0.1992917,407.8333,-1.419167,0.005,0.0175,433.8667,394.5333,96.583,0.38,0.41,0,1
2017-11-10 15:15,-0.2041583,408,-1.4415,0.004583,0.014583,432.9333,394.6,93.283,0.36,0.396,0,1
2017-11-10 15:16,-0.2032917,407.8333,-1.407167,0.004583,0.015417,433.5667,401.5667,90.383,0.357,0.396,0,0
2017-11-10 15:17,-0.1971667,407.6667,-1.384167,0.005417,0.014167,432.9333,401,87.533,0.368,0.402,0,0
2017-11-10 15:18,-0.2069667,407.8333,-1.377833,0.005,0.015417,433.3,401.6,85.6,0.364,0.404,0,0
2017-11-10 15:19,-0.1822333,409,-1.385167,-0.03375,0.01375,433.9333,402.9,86.683,0.359,0.399,0,0
2017-11-10 15:20,-0.1983083,408.1667,-1.368167,0.0125,0.01875,433.7,397.1333,87.767,0.363,0.407,0,0
2017-11-10 15:21,-0.2010833,408,-1.3875,0.007083,0.022083,433.3333,393.9667,89.75,0.354,0.396,0,0
2017-11-10 15:22,-0.1242833,410.1667,-1.417167,0.010833,0.0225,433.3,393.9333,90.383,0.355,0.397,12,0
2017-11-10 15:23,-0.005291667,407.6667,-1.442667,0.005833,0.015,433.4333,393.2,89.717,0.397,0.419,0,2
2017-11-10 15:24,-0.1850917,408.5,-1.396667,0.00625,0.014167,433.1,389.2667,84.6,0.399,0.454,0,3
2017-11-10 15:25,-0.036303,407.8333,-1.299333,0.01,0.015833,433.7333,392.5,102.85,0.37,0.546,0,0
2017-11-10 15:26,-0.2101333,408,-1.21,0.0075,0.014167,433.1333,395.2,99.3,0.441,0.472,0,0
2017-11-10 15:27,-0.1986417,408.1667,-1.126,0.014583,0.01375,432.6333,394.5667,97.033,0.409,0.426,0,0
2017-11-10 15:28,1.707405,502.8333,-1.084,-0.00375,0.014167,444.1,399.7333,122.95,0.362,0.393,0,34
2017-11-10 15:29,6.496167,598.6667,0.021167,0.013333,1.170417,529.0333,465.6,197.917,1.77,1.657,0,112
2017-11-10 15:30,9.15725,668.3333,10.60467,0.015417,5.2575,625.3,540.3,244.7,4.374,4.429,0,161
2017-11-10 15:31,5.3605,504.1667,25.64983,0.00125,3.804167,670,579.6,204.317,5.811,5.796,0,116
2017-11-10 15:32,9.596917,746.5,40.64583,0.012917,3.930417,662.3333,593.2,231.2,2.969,3.216,0,169
2017-11-10 15:33,10.776,744.5,59.16667,0.003333,7.305833,750.0333,654,272.9,7.013,6.819,3,209
2017-11-10 15:34,11.8125,722.8333,74.0185,0.007083,9.619583,814,695.4667,344,7.518,7.235,2,246
2017-11-10 15:35,9.413667,653.5,87.05617,-0.0025,4.75875,808.3666,705.1,256.45,6.389,6.61,0,184
2017-11-10 15:36,7.699167,683.3333,100.9603,-0.004167,1.23375,749.3666,689.5,233.683,5.637,5.431,0,183
2017-11-10 15:37,10.47575,670.3333,114.7315,-0.00375,2.95625,758.5,683.9,284.083,5.689,5.556,0,231
2017-11-10 15:38,6.877167,606.1667,124.845,0.004167,2.015417,762.0667,674.1,260.017,6.171,6.299,8,168
2017-11-10 15:39,22.74908,1058.667,129.1638,0.020417,5.847917,862.2,742.4667,452.817,4.824,5.016,36,250
2017-11-10 15:40,58.87833,1178.667,154.1672,0.057083,24.82458,1271.067,1041.767,691.983,20,19.921,0,250
2017-11-10 15:41,42.26692,601.1667,207.4865,0.018333,24.82417,1104.767,975,387.467,20,20,0,232
2017-11-10 15:42,6.58475,564.6667,247.0018,-0.000417,10.07917,762.7333,690.2667,113.617,15.644,16.152,0,92
2017-11-10 15:43,4.990667,588.8333,262.2032,0.050833,0.478333,659.4333,606.8333,124.317,5.032,5.218,0,69
2017-11-10 15:44,5.777667,579.3333,247.8677,-0.049167,2.76,642.2333,585.6667,162.133,4.125,4.221,0,84
2017-11-10 15:45,13.16033,711.5,247.136,0.020833,6.0575,657.0333,580.9333,215.2,3.997,4.093,0,146
2017-11-10 15:46,30.30167,595.3333,185.5738,0.017917,24.21458,780.8,647.6667,272.2,11.972,9.872,0,164
2017-11-10 15:47,4.59815,415.8333,107.8487,0.010833,12.40917,629.3666,557.8333,111.183,16.801,16.589,0,4
2017-11-10 15:48,1.294033,495.3333,81.71467,0.03375,3.501667,516.4667,479.1667,94.333,2.109,2.219,0,0
2017-11-10 15:49,18.462,663.6667,60.69233,0.037917,17.79292,545.9333,476.5667,216.95,2.476,1.886,0,86
2017-11-10 15:50,8.570583,504.8333,40.5845,0.029583,20.53667,629.1667,548.7333,251.133,10.899,10.107,0,98
2017-11-10 15:51,7.841917,700.3333,28.47017,0.015,14.36625,582.1,541.2,185.883,4.531,4.854,0,69
2017-11-10 15:52,14.02125,691.8333,23.496,0.010833,21.73375,686.1334,608.8333,326.45,7.995,7.01,5,204
2017-11-10 15:53,2.32935,461.6667,21.8545,0.002917,13.055,655.9667,630.2333,159.433,7.079,7.289,3,18
2017-11-10 15:54,10.12188,753.6667,20.75617,0.014583,14.46667,594.9333,550.6334,261.683,1.303,1.435,0,160
2017-11-10 15:55,25.58917,865.3333,29.4225,0.015833,23.15625,769.7333,640.5333,406.033,8.07,7.051,0,250
2017-11-10 15:56,10.01617,636.1667,36.21133,0.006667,20.97042,840.5,711.6667,303.067,12.786,13.181,0,193
2017-11-10 15:57,5.795167,737.6667,41.8205,0.004583,11.03958,753.9,677.3666,221.567,4.879,5.23,10,121
2017-11-10 15:58,40.15667,1101,44.2385,0.007083,14.32208,731.1334,652.3333,326.333,4.043,4.213,0,236
2017-11-10 15:59,94.41334,637,52.267,0.001667,24.82458,885.7,778.2333,291.5,20,20,0,198
2017-11-10 16:00,12.94167,464.3333,54.25217,0.044167,24.72042,672.7333,643.8666,12.883,20,20,0,2
2017-11-10 16:01,25.17,586,49.8095,-0.014167,24.4,596.4667,545.4667,45.883,9.141,9.824,0,1
2017-11-10 16:02,28.23667,489,39.78333,-0.003333,24.82458,600.6667,542.2667,58.633,19.529,17.973,0,0
2017-11-10 16:03,10.4245,438.8333,27.72167,-0.007083,23.17375,573.2,517.8333,67.517,12.771,13.92,0,0
2017-11-10 16:04,5.4305,439.5,12.987,-0.000833,15.71083,524.9667,474.5667,98.267,5.04,5.776,0,0
2017-11-10 16:05,3.922333,417,,-0.001667,11.81333,495.2333,451.3667,97.917,4.329,4.46,0,0
2017-11-10 16:06,0.9126166,413,,0.00375,5.419167,473,433.9667,88.9,2.321,2.948,0,0
2017-11-10 16:07,0.4657667,411.6667,,0.007917,4.496666,458,419.6667,102.7,1.378,1.568,0,0
2017-11-10 16:08,0.2484,410.3333,,0.010833,4.828333,448.2,418.4667,100.75,0.996,1.199,0,0
2017-11-10 16:09,0.1274367,409.6667,,0.00125,4.45,443.5,413.1667,90.433,0.876,1.022,0,0
2017-11-10 16:10,0.02698367,409.6667,,0.012083,4.382083,438.1,408.0667,88.767,0.779,0.884,0,0
2017-11-10 16:11,0.12136,410.5,,0.009167,4.512084,432.4,403.5,87.25,0.724,0.813,1,0
2017-11-10 16:12,0.3447833,413.3333,,0.0025,4.714167,432.9667,402.2333,88.817,0.741,0.818,0,15
2017-11-10 16:13,0.2581667,409.5,,0.00125,4.222084,433,403,87.233,0.815,0.912,0,0
2017-11-10 16:14,-0.1160658,408,,0.003333,3.713333,434.3,402.8667,92.067,0.694,0.771,0,0
2017-11-10 16:15,-0.02160283,411.8333,,0,3.777917,440.4,402.9667,94.283,0.529,0.577,0,0
2017-11-10 16:16,0.1519,411.1667,,-0.009583,3.3325,440.4,409.3,93,0.669,0.724,0,0
2017-11-10 16:17,-0.07521333,777.5,,-0.041667,1.885417,440.2667,409.2333,80.067,0.536,0.608,0,0
2017-11-10 16:18,-0.1713367,409,,0.002083,0.220833,434.9667,410.7,72.167,0.497,0.557,0,0
2017-11-10 16:19,-0.1945167,409,,-0.000417,0.019167,433.9333,410.4333,53.45,0.456,0.508,0,0
2017-11-10 16:20,-0.1434667,408.3333,,-0.000833,0.01625,440.0333,410.6,44.9,0.455,0.51,0,0
2017-11-10 16:21,-0.2241833,353.3333,,0.003333,0.0125,440.2667,410.4333,44.417,0.466,0.523,0,0
2017-11-10 16:22,-0.04641667,414,,0.005833,0.010417,440.9,417.2,49.483,0.444,0.492,0,1
2017-11-10 16:23,-0.1858333,408.1667,,0.012083,0.009167,441.5,418.4333,84.567,0.482,0.509,0,0
2017-11-10 16:24,0.0799,413,,0.014583,1.337917,441.0333,415.8333,115.7,0.475,0.498,0,0
2017-11-10 16:25,-0.145215,410,,0.047083,2.133333,435.6,414.5333,115.667,0.542,0.595,0,0
2017-11-10 16:26,-0.07492966,413.8333,,-0.005417,1.847083,434.5333,417.7333,113.3,0.45,0.506,0,0
2017-11-10 16:27,-0.18915,410.6667,,0.0025,0.016667,432.8,417.8667,86.217,0.419,0.481,0,0
2017-11-10 16:28,-0.1578833,411,,0.0025,0.13875,433.0667,418.4333,94.833,0.417,0.47,0,0
2017-11-10 16:29,0.3448333,409.5,,0.008333,1.190833,433.0333,418.4333,101.5,0.455,0.46,0,0
2017-11-10 16:30,-0.2250333,409.5,,0.002917,2.912917,433.9,418.4333,116.567,0.48,0.574,0,0
2017-11-10 16:31,-0.1911333,409,,0.005417,4.069167,434.5667,418.5333,117.583,0.402,0.457,0,0
2017-11-10 16:32,-0.2140667,408,,0.005417,4.537917,432.9667,418.3667,131.467,0.392,0.452,0,0
2017-11-10 16:33,-0.2016167,414,,0.016667,3.779167,433.4667,418.4333,121.467,0.37,0.432,0,0
2017-11-10 16:34,0.70031,409.6667,,-0.010417,3.107083,438.4333,424.8,110.933,0.383,0.427,0,0
2017-11-10 16:35,-0.2272167,408.1667,,0.00875,2.09125,440.8333,424.0667,102.75,0.521,0.601,0,0
2017-11-10 16:36,-0.2227667,408.1667,,0.002917,1.65125,440.7667,418.5,107.267,0.373,0.42,0,0
2017-11-10 16:37,0.8826517,428.5,,0.004167,1.279167,440.6,419.0333,102.45,0.362,0.422,0,0
2017-11-10 16:38,-0.1344983,412.6667,,-0.000417,0.659583,447.3,426,95.733,0.624,0.7,0,0
2017-11-10 16:39,-0.206,408.8333,,-0.002083,0.0425,448.1667,426.0333,90.25,0.39,0.444,0,0
2017-11-10 16:40,0.02909333,424.1667,,-0.0025,0.008333,443.1333,426.1,73.283,0.367,0.418,0,0
2017-11-10 16:41,1.954,428.6667,,0.0025,0.0075,450.1333,432.4667,77.483,0.473,0.501,0,1
2017-11-10 16:42,0.480105,412.3333,,0.015833,0.0075,463.4,441.7,84.35,0.688,0.9,0,0
2017-11-10 16:43,1.656,409.8333,,0.00125,0.526667,461,433.7667,91.633,0.575,0.615,0,0
2017-11-10 16:44,0.866605,411.5,,0.007083,0.69125,451.5,432.4,96.65,0.641,0.819,0,0
2017-11-10 16:45,-0.05309333,408.5,,0.004583,0.985833,448.5,426.1667,101.733,0.628,0.716,0,1
